Skip Page Navigation
NASA JPL Caltech
NASA Logo - Jet Propulsion Laboratory + View the NASA Portal
+ Near-Earth Object (NEO) Program
Search JPL
JPL Home Earth Solar System Stars & Galaxies Technology
JPL Solar System Dynamics
BODIES ORBITS EPHEMERIDES TOOLS PHYSICAL DATA DISCOVERY FAQ SITE MAP
JPL Small-Body Database Browser
Search: [ help ]  
13802 (1998 WR3)
Classification: Main-belt Asteroid          SPK-ID: 2013802
Ephemeris | Orbit Diagram | Orbital Elements | Physical Parameters | Discovery Circumstances | Close-Approach Data ]

[ show orbit diagram ]
Orbital Elements at Epoch 2457000.5 (2014-Dec-09.0) TDB
Reference: JPL 14 (heliocentric ecliptic J2000)
 Element Value Uncertainty (1-sigma)   Units 
e .1535063381415894 5.0723e-08  
a 2.255516883516896 1.4377e-08 AU
q 1.909280746111688 1.1832e-07 AU
i 7.891989767225557 5.6925e-06 deg
node 58.31378413573411 3.92e-05 deg
peri 224.3542454776944 4.389e-05 deg
M 30.16938685498104 1.9067e-05 deg
tp 2456896.811275174919
(2014-Aug-27.31127517)
6.5627e-05 JED
period 1237.278739420793
3.39
1.183e-05
3.239e-08
d
yr
n .2909611137168062 2.7819e-09 deg/d
Q 2.601753020922104 1.6584e-08 AU
  Orbit Determination Parameters
   # obs. used (total)      988  
   data-arc span      11994 days (32.84 yr)  
   first obs. used      1981-10-30  
   last obs. used      2014-09-01  
   planetary ephem.      DE431  
   SB-pert. ephem.      SB431-BIG16  
   condition code      0  
   fit RMS      .51187  
   data source      ORB  
   producer      Otto Matic  
   solution date      2014-Sep-12 14:02:26  

Additional Information
 Earth MOID = .9034 AU 
 T_jup = 3.596 
[ show covariance matrix ]

Ephemeris | Orbit Diagram | Orbital Elements | Physical Parameters | Discovery Circumstances | Close-Approach Data ]

Physical Parameter Table
Parameter Symbol Value Units Sigma Reference Notes
absolute magnitude H 13.7 mag n/a MPO263472  

13802 (1998 WR3)          Discovered 1998-Nov-18 by Ueda, S., Kaneda, H. at Kushiro (399)
Reference: 20000222/Numbers.arcLast Updated: 2004-04-19

[ show close-approach data ]
Alternate Designations
 1998 WR3 = 1981 UD7 = 1997 JK16 
Ephemeris | Orbit Diagram | Orbital Elements | Physical Parameters | Discovery Circumstances | Close-Approach Data ]
ABOUT SSD CREDITS/AWARDS PRIVACY/COPYRIGHT GLOSSARY LINKS
FirstGov 2014-Sep-16 15:25 UT
(server date/time)  
NASA Home Page
Site Manager:   Donald K. Yeomans
Webmaster  Alan B. Chamberlin